User: anonymous
Location: Goheenville
(40.9070°N, 79.3720°W)
Time: 20:15:03
(UTC-04:00)
Language:

NOAA 11 - Orbit

View from above orbital plane
View from above orbital plane
View from above satellite
View from above satellite

Ground track
Ground track

The orbit data is extracted from the following two-line orbital elements,

1 19531U 88089A   14242.32603771  .00000007  00000-0  25758-4 0  9363
2 19531 098.6768 319.1959 0012312 088.4475 271.8109 14.15092701338223
Epoch (UTC): 30 August 2014 07:49:29
Eccentricity: 0.0012312
inclination: 98.6768°
perigee height: 833 km
apogee height: 851 km
right ascension of ascending node: 319.1959°
argument of perigee: 88.4475°
revolutions per day: 14.15092701
mean anomaly at epoch: 271.8109°
orbit number at epoch: 33822

The dashed part of the orbit path shows where the satellite is in the earth's shadow,  

DLR